This is the latest recevied weather packets stored in our database for station/object KL7LK-13. If no packets are shown the sender has not sent any weather packets the latest 10 day(s).
| Time | Temp. | Humidity | Pressure | Rain* | Wind** | Luminosity | Snow |
|---|---|---|---|---|---|---|---|
| 1777544542 | 0° C | 83% | 1032.9 hPa | - | - | 0 W/m² | - |
| 1777537414 | 1.11° C | 81% | 1032.3 hPa | - | - | 0 W/m² | - |
| 1777536815 | 1.11° C | 81% | 1032.5 hPa | - | - | 0 W/m² | - |
| 1777535575 | 1.67° C | 77% | 1032.3 hPa | - | - | 0 W/m² | - |
| 1777519929 | 6.67° C | 54% | 1032.7 hPa | - | - | 32 W/m² | - |
| 1777505548 | 8.33° C | 55% | 1034.8 hPa | - | - | 249 W/m² | - |
| 1777504329 | 7.78° C | 54% | 1035.1 hPa | - | - | 294 W/m² | - |
| 1777501953 | 6.11° C | 62% | 1035.6 hPa | - | - | 194 W/m² | - |
| 1777500734 | 8.33° C | 56% | 1035.8 hPa | - | - | 214 W/m² | - |
| 1777497118 | 7.78° C | 56% | 1036.3 hPa | - | - | 496 W/m² | - |
| 1777495879 | 7.22° C | 59% | 1036.7 hPa | - | - | 253 W/m² | - |
| 1777491808 | 6.67° C | 60% | 1037 hPa | - | - | 252 W/m² | - |
| 1777490548 | 7.78° C | 55% | 1037.1 hPa | - | - | 451 W/m² | - |
| 1777486334 | 6.67° C | 63% | 1037.4 hPa | - | - | 282 W/m² | - |
| 1777485734 | 6.11° C | 64% | 1037.4 hPa | - | - | 269 W/m² | - |
| 1777481496 | 3.89° C | 74% | 1037.6 hPa | - | - | 99 W/m² | - |
| 1777481000 | 3.89° C | 76% | 1037.5 hPa | - | - | 79 W/m² | - |
| 1777479781 | 3.33° C | 81% | 1037.5 hPa | - | - | 89 W/m² | - |
| 1777477902 | 2.22° C | 86% | 1037.6 hPa | - | - | 40 W/m² | - |
| 1777477426 | 1.67° C | 88% | 1037.5 hPa | - | - | 42 W/m² | - |
| 1777476167 | 1.11° C | 89% | 1037.5 hPa | - | - | 36 W/m² | - |
| 1777474308 | 1.11° C | 88% | 1037.3 hPa | - | - | 30 W/m² | - |
| 1777469000 | 0.56° C | 91% | 1037.4 hPa | - | - | 0 W/m² | - |
| 1777465383 | 0° C | 96% | 1037.2 hPa | - | - | 0 W/m² | - |
| 1777460551 | 0.56° C | 95% | 1036.8 hPa | - | - | 0 W/m² | - |
* Rain since midnight (hover to see other rain measurements)
** Current wind speed in m/s (hover to see current wind gust speed)